User: anonymous   Login
Location: Stara Lesna
(49.1528°N, 20.2911°E)
Time: 21:39:22
(UTC+01:00)
Language:

S3M - Orbit

View from above orbital plane
View from above orbital plane
View from above satellite
View from above satellite

Ground track
Ground track

The orbit data is extracted from the following two-line orbital elements,

1 12508U 81053B   19323.76865347 +.00000012 +00000-0 -28218-5 0  9997
2 12508 082.9606 207.1574 0036189 249.8236 109.9027 13.76352941937060
Epoch (UTC): 19 November 2019 18:26:51
Eccentricity: 0.0036189
inclination: 82.9606°
perigee height: 950 km
apogee height: 1003 km
right ascension of ascending node: 207.1574°
argument of perigee: 249.8236°
revolutions per day: 13.76352941
mean anomaly at epoch: 109.9027°
orbit number at epoch: 93706

The dashed part of the orbit path shows where the satellite is in the earth's shadow,  

DLR